星链-3685 (STARLINK-3685 )

导读

STARLINK-3685是美国太空探索技术公司(SpaceX)于2022年3月19日发射的Starlink(星链)低轨互联网卫星,隶属于全球卫星互联网星座组网项目。该卫星运行在近地轨道,轨道倾角53.16度,近地点高度约475公里。作为星链星座的组成部分,它为全球偏远地区提供高速低延迟互联网接入,服务覆盖通信、军事等领域,助力缩小全球数字鸿沟,推动互联网普及。

Basic Information
目录编号:
52115
目录名称:
STARLINK-3685
国际标识:
2022-029AD
轨道中心:
EARTH
卫星名称:
星链-3685
卫星全名:
星链-3685 (STARLINK-3685 )
卫星状态:
在轨 (已飞行1551 天)
发射日期:
2022-03-19 UTC
国别 :
美国 (US)
星等 :
--
Orbit Information
数据来源 国际轨道数据 AOE轨道数据
星历时间 2026-06-17T20:00:03+0800
6小时前
查看轨道信息
2026-06-11T17:00:00+0800
6天前
查看轨道信息
半长轴 6892.947km 6917.859km
偏心率 0.0001886 0.0000848
轨道倾角 53.159° 53.161°
近地点辐角 71.190° 97.850°
升交点赤经 350.816° 18.488°
平近点角 51.658° 145.173°
近地点 513.509km 539.135km
远地点 516.111km 540.309km
周期 94.922分钟 95.437分钟
每日圈数 15.170342 15.088471
Detailed Information
固有亮度:
5
最大亮度:
2.5
卫星平台:
Starlink v1.5
覆盖范围:
全球
运营商:
太空探索技术公司
运营商所在国:
美国
制造商(研发单位):
太空探索技术公司
制造商所在国:
美国
使用方式:
暂无
Satellite Introduction
星链(Starlink)计划是由太空探索技术公司(SpaceX)提出的一个巨型低轨卫星互联网星座项目,计划在2019年至2024年间在太空搭建由约1.2万颗卫星组成的“星链”网络,其中1584颗将部署在地球上空550千米处的近地轨道,并从2020年开始工作。该卫星仍在工作。
2D Orbit Map
3D Orbit Map
Orbit Altitude Analysis Chart
Orbit Inclination Analysis Chart
Orbit Comprehensive Analysis Chart
View Comprehensive Chart